sat.trackr.live / text

‹ back to catalog

GHGSAT-C1

NORAD 46278 · 2020-061G

PAYLOAD ACTIVE UNKNOWN

§ Identity

Operator
Country
CA
Launch date
2020-09-03
Launch site
FRGUI
Launch vehicle
Mass (kg)
RCS (m²)

External: N2YO · Heavens-Above · Gunter

§ Orbital elements

Epoch: 2026-05-25T05:25:55.655904Z

Period
91.74 min
Inclination
97.2107°
Eccentricity
0.0002717
Mean motion
15.69581734 rev/d
Perigee alt
358.3 km
Apogee alt
361.9 km
Semi-major
6,738.2 km
B*
2.9068e-4
RAAN
229.6238°
Arg perigee
121.9568°
Mean anomaly
238.1959°
Rev number
31,987

§ Raw data

GHGSAT-C11 46278U 20061G   26145.22633861  .00034248  00000+0  29068-3 0  99932 46278  97.2107 229.6238 0002717 121.9568 238.1959 15.69581734319870

JSON: /api/v1/satellites/46278 · /tle

For live sub-satellite position, see the globe view (requires WebGL).

§ Visibility from observer

Set your observer location to see the next 7 days of passes ≥ 10°. The values pass through the URL so the page stays shareable.

No JS? Fill the form by hand. The geolocation button needs JavaScript.